Regional Weather Roundup
Issued by NWS

Home | Current Version | Previous Version | Graphics & Text | Print | Product List | Glossary On
Versions: 1 2 3 4 5 6 7 8 9 10 11 12 13 14 15 16 17 18 19 20 21 22 23 24 25 26 27 28 29 30 31 32 33 34 35 36 37 38 39 40 41 42 43 44 45 46 47 48 49 50
000
ASUS45 KBOI 191110
RWRID
WEATHER ROUNDUP FOR IDAHO
NATIONAL WEATHER SERVICE BOISE ID
400 AM MST FRI DEC 19 2014

NOTE: "FAIR" INDICATES FEW OR NO CLOUDS BELOW 12000 FEET
WITH NO SIGNIFICANT WEATHER AND/OR OBSTRUCTIONS TO VISIBILITY

IDZ012-014-191200-
SOUTHWEST IDAHO


CITY           SKY/WX    TMP DP  RH WIND       PRES   REMARKS
BOISE          CLOUDY    44  33  65 SE12      30.04F
CALDWELL       CLOUDY    43  28  56 E10       30.06S
MOUNTAIN HOME  CLOUDY    39  31  74 E16       30.07F WCI  30
$$

IDZ016-017-191200-
SOUTHCENTRAL IDAHO


CITY           SKY/WX    TMP DP  RH WIND       PRES   REMARKS
BURLEY         CLOUDY    37  26  64 S10       30.09F WCI  30
JEROME         CLOUDY    33  28  81 NE9       30.10F WCI  25
TWIN FALLS     CLOUDY    39  26  59 S9        30.08F WCI  33
$$

IDZ019>023-191200-
SOUTHEAST IDAHO


CITY           SKY/WX    TMP DP  RH WIND       PRES   REMARKS
IDAHO FALLS    CLOUDY    31  28  89 CALM      30.12F
POCATELLO      CLOUDY    37  28  70 S7        30.12F WCI  32
REXBURG        CLOUDY    31  29  92 CALM      30.11F
$$

IDZ006-010-011-018-031-032-191200-
CENTRAL IDAHO MOUNTAINS


CITY           SKY/WX    TMP DP  RH WIND       PRES   REMARKS
MCCALL         FLURRIES  32  31  96 SE3       30.01F
HAILEY         CLOUDY    32  30  93 NW7       30.11F WCI  26
STANLEY          N/A     32  23  69 SE7       30.04S WCI  26
SALMON         CLOUDY    27  25  93 CALM      30.06F
CHALLIS        MOCLDY    25  22  88 CALM      30.05F
$$

IDZ002-004-006-007-026-191200-
NORTHERN IDAHO


CITY           SKY/WX    TMP DP  RH WIND       PRES   REMARKS
LEWISTON       CLOUDY    44  37  76 E12       29.92F
LOWELL           N/A     37  35  92 VRB3      30.04F
COEUR D`ALENE  CLOUDY    37  34  87 NE8       29.90F WCI  31
MULLAN PASS    CLOUDY    30  28  92 S8        29.88F FOG     WCI  22
$$



USA.gov is the U.S. government's official web portal to all federal, state and local government web resources and services.